Regional Weather Roundup
Issued by NWS

Home | Current Version | Previous Version | Graphics & Text | Print | Product List | Glossary On
Versions: 1 2 3 4 5 6 7 8 9 10 11 12 13 14 15 16 17 18 19 20 21 22 23 24 25 26 27 28 29 30 31 32 33 34 35 36 37 38 39 40 41 42 43 44 45 46 47 48 49 50
000
ASUS43 KTOP 251559
RWRKS

WEATHER ROUNDUP FOR KANSAS
NATIONAL WEATHER SERVICE GOODLAND KS
1000 AM CST TUE NOV 25 2014

NOTE:  "FAIR" INDICATES FEW OR NO CLOUDS BELOW 12,000 FEET WITH NO
SIGNIFICANT WEATHER AND/OR OBSTRUCTIONS TO VISIBILITY.

KSZ001>006-013>018-027>032-041>047-251700-
NORTHWEST KANSAS

CITY           SKY/WX    TMP DP  RH WIND       PRES   REMARKS
GOODLAND       PTSUNNY   37  17  44 SW18G26   30.06F WCI  27
HAYS           SUNNY     36  18  48 W13       30.16F WCI  27
HILL CITY      MOSUNNY   35  21  56 SW8       30.13F
RUSSELL        SUNNY     35  26  69 SW12      30.14F WCI  27
$$

KSZ061>065-074>080-084>089-251700-
SOUTHWEST KANSAS

CITY           SKY/WX    TMP DP  RH WIND       PRES   REMARKS
DODGE CITY     SUNNY     35  21  56 SW9       30.20F
ELKHART          N/A     39  17  41 SW13        N/A  WCI  31
GARDEN CITY    SUNNY     53  21  28 SW9       30.17F
GREAT BEND     SUNNY     36  25  64 SW10      30.19F WCI  28
LIBERAL        SUNNY     37  23  56 SW10      30.24F WCI  30
$$

KSZ066>073-081>083-090>101-251700-
SOUTHEAST KANSAS

CITY           SKY/WX    TMP DP  RH WIND       PRES   REMARKS
CHANUTE        SUNNY     33  14  45 NW6       30.26S
COFFEYVILLE    PTSUNNY   35  16  45 NW3       30.28F
HUTCHINSON     SUNNY     40  23  50 SW9       30.22F
MEDICINE LODGE   N/A     39  29  67 SW3       30.24F
NEWTON         SUNNY     36  18  48 SW10      30.23F WCI  28
PARSONS        SUNNY     35  16  45 NW5       30.28S
WICHITA INTL   MOSUNNY   38  20  48 S8        30.24F
WICHITA JABRA  SUNNY     38  15  39 SW8       30.23F
WINFIELD       SUNNY     36  20  52 S5        30.27F
$$

KSZ007>012-019>026-033>040-048>060-102>105-251700-
NORTHEAST KANSAS

CITY           SKY/WX    TMP DP  RH WIND       PRES   REMARKS
CONCORDIA      SUNNY     35  25  66 SW9       30.15F
EMPORIA        SUNNY     33  14  45 W8        30.23S
LAWRENCE       SUNNY     31  13  47 W6        30.24S
MANHATTAN      SUNNY     32  20  61 SW8       30.21F
OLATHE IND     SUNNY     30  11  45 W8        30.23R
OLATHE EXE     SUNNY     30   8  39 VRB6      30.22R
SALINA         SUNNY     37  24  59 SW8       30.21F
TOPEKA BILLARD SUNNY     33  13  43 VRB3      30.23F
TOPEKA FORBES  SUNNY     35  10  35 W7        30.21F
$$



USA.gov is the U.S. government's official web portal to all federal, state and local government web resources and services.